Zorg en Hoop Airport

Jump to: basic info | weather | comments

Related pages: nearby airports | nearby navaids | notams | map

Basic information (top)

Codes: ORG SMZO
Location: lon 5.811080, lat -55.190701, elev 10 ft / 3 m msl
Status: small_airport

Weather (top)

Current conditions (rec'd 2014/12/18 20:00Z):

SMZO 182000Z 05007KT 9999 FEW030 29/22 Q1010 NOSIG

Airport forecast (rec'd 2014/12/12 18:03Z):

TAF COR TAF COR SMZO 121600Z 1218/1318 12008KT 9999 FEW010 FEW015CB BKN025 TX30/1317Z TN22/1310Z 
      TEMPO 1218/1222 3000 SHRA 
      TEMPO 1218/1220 1500 +TSRA SCT015CB BKN020 
      TEMPO 1313/1318 4000 SHRA SCT010 BKN020

Latest comments (top)

KLM flights from Caracas - Paramaribo - Dakar - Madrid - fra: I would like to know if this airport ... [read]

More... (top)

See also NOTAMs and nearby airports and navaids, or visit the Zorg en Hoop Airport page at the main OurAirports website..